"Pseudo-MPEC" for Arms094

Created 2026 Aug 20 15:35:03 UT using Find_Orb

Click here for an explanation of pseudo-MPECs

 
 Astrometry: 
     Arms094*2C2026 08 20.09896823 51 56.03 -06 51 58.4    ~8K4o 20.6 GVNEOCPK93
     Arms094 2C2026 08 20.10207323 51 55.83 -06 51 59.1    ~8K4o 20.7 GVNEOCPK93
     Arms094 2C2026 08 20.10519923 51 55.67 -06 51 59.7    ~8K4o 20.9 GVNEOCPK93
     Arms094 1C2026 08 20.21529023 51 49.65 -06 52 28.8    ~8KA5 20.5 GVNEOCPZ31
     Arms094 1C2026 08 20.21841523 51 49.46 -06 52 29.4    ~8KA5 20.8 GVNEOCPZ31
     Arms094 1C2026 08 20.22467423 51 49.11 -06 52 30.5    ~8KA5 20.9 GVNEOCPZ31

Station data:
(K93) Sutherland-LCOGT C  (S32.380667 E20.810110)  South Africa.  Observer J.
   D. Armstrong. 1.0-m f/8.0 Ritchey-Chrétien + CCD.
(Z31) Tenerife Observatory-LCO A, Tenerife  (N28.300419 W16.511650)  Canary
   Islands (Spain).  Observer J. D. Armstrong. Measurer M. Micheli. 1.0-m
   reflector + CCD.

Orbital elements:  Arms094
   Perihelion 2027 Feb 25.503925 +/- 429 TT = 12:05:39.1 (JD 2461462.003925)
Epoch 2026 Aug 20.0 TT = JDT 2461272.5   Earth MOID: 0.2483   Ju: 0.5770
M 359.856215288 +/- 80              Me: 0.0005                   AutoNEOCP
n   0.000758742 +/-                 Peri.  135.977573 +/- 56
a 119.0528281 +/-                   Node   352.843561 +/- 9
e   0.99717137 +/- 0.25             Incl.   34.113412 +/- 55
P1299.00127                H 15.93  G  0.15   U 10.3  SR
q 0.336755840 +/- 1.34    Q 237.7689004 +/- 31.2          (J2000 ecliptic)
From 6 observations 2026 Aug. 20 (3.0 hr); mean residual 0".14
Residuals in arcseconds: 
260820 K93  .19+  .03-    260820 K93  .00   .08+    260820 Z31  .07-  .08-    
260820 K93  .21-  .03-    260820 Z31  .16+  .19-    260820 Z31  .07-  .25+    

Ephemerides (geocentric):
Date (UTC) HH   RA             Dec           delta  r     elong  mag " sig PA
---- --------  ------------   ------------  ------ ------ -----  --- --------
2026 08 20 16  23 51 24.865   -06 54 10.48  2.3817 3.3065 151.5 21.0 23.4 174
2026 08 20 17  23 51 22.551   -06 54 20.13  2.3809 3.3059 151.6 21.0 25.2 175
2026 08 20 18  23 51 20.233   -06 54 29.80  2.3801 3.3054 151.6 21.0 27.0 176
2026 08 20 19  23 51 17.913   -06 54 39.48  2.3792 3.3049 151.7 21.0 28.9 176
2026 08 20 20  23 51 15.589   -06 54 49.16  2.3784 3.3044 151.7 21.0 30.7 177
2026 08 20 21  23 51 13.263   -06 54 58.86  2.3776 3.3038 151.8 21.0 32.5 178
2026 08 20 22  23 51 10.933   -06 55 08.57  2.3768 3.3033 151.8 21.0 34.3 178
2026 08 20 23  23 51 08.601   -06 55 18.28  2.3760 3.3028 151.9 21.0 36.2 179
2026 08 21 00  23 51 06.266   -06 55 28.01  2.3751 3.3023 151.9 21.0 38.0   0
2026 08 21 01  23 51 03.928   -06 55 37.75  2.3743 3.3017 152.0 21.0 39.8   0
2026 08 21 02  23 51 01.587   -06 55 47.50  2.3735 3.3012 152.0 21.0 41.6   1
2026 08 21 03  23 50 59.243   -06 55 57.26  2.3727 3.3007 152.1 21.0 43.4   1
2026 08 21 04  23 50 56.896   -06 56 07.03  2.3719 3.3002 152.1 21.0 45.2   2
2026 08 21 05  23 50 54.546   -06 56 16.81  2.3710 3.2996 152.2 21.0 47.1   2
2026 08 21 06  23 50 52.194   -06 56 26.60  2.3702 3.2991 152.2 21.0 48.9   3
2026 08 21 07  23 50 49.838   -06 56 36.40  2.3694 3.2986 152.3 21.0 50.7   4
2026 08 21 08  23 50 47.479   -06 56 46.21  2.3686 3.2981 152.3 21.0 52.5   4
2026 08 21 09  23 50 45.118   -06 56 56.04  2.3678 3.2975 152.4 21.0 54.3   5
2026 08 21 10  23 50 42.753   -06 57 05.87  2.3670 3.2970 152.4 21.0 56.2   5
2026 08 21 11  23 50 40.386   -06 57 15.71  2.3662 3.2965 152.5 21.0 58.0   6
2026 08 21 12  23 50 38.015   -06 57 25.56  2.3653 3.2960 152.5 21.0 59.8   6
2026 08 21 13  23 50 35.642   -06 57 35.43  2.3645 3.2954 152.6 21.0 61.6   7
2026 08 21 14  23 50 33.266   -06 57 45.30  2.3637 3.2949 152.6 21.0 63.5   7
2026 08 21 15  23 50 30.887   -06 57 55.18  2.3629 3.2944 152.7 21.0 65.3   8
2026 08 21 16  23 50 28.505   -06 58 05.08  2.3621 3.2939 152.7 21.0 67.1   8
2026 08 21 17  23 50 26.120   -06 58 14.98  2.3613 3.2933 152.8 21.0 69.0   9
2026 08 21 18  23 50 23.732   -06 58 24.90  2.3605 3.2928 152.8 21.0 70.8   9
2026 08 21 19  23 50 21.341   -06 58 34.82  2.3596 3.2923 152.9 20.9 72.7  10
2026 08 21 20  23 50 18.947   -06 58 44.76  2.3588 3.2918 152.9 20.9 74.5  10
2026 08 21 21  23 50 16.550   -06 58 54.70  2.3580 3.2912 153.0 20.9 76.4  11
2026 08 21 22  23 50 14.151   -06 59 04.66  2.3572 3.2907 153.0 20.9 78.3  11
2026 08 21 23  23 50 11.748   -06 59 14.63  2.3564 3.2902 153.1 20.9 80.2  12
2026 08 22 00  23 50 09.343   -06 59 24.60  2.3556 3.2897 153.1 20.9 82.0  12
2026 08 22 01  23 50 06.934   -06 59 34.59  2.3548 3.2891 153.2 20.9 83.9  13
2026 08 22 02  23 50 04.523   -06 59 44.59  2.3540 3.2886 153.2 20.9 85.8  13
2026 08 22 03  23 50 02.108   -06 59 54.59  2.3532 3.2881 153.3 20.9 87.7  14
2026 08 22 04  23 49 59.691   -07 00 04.61  2.3524 3.2876 153.3 20.9 89.7  14
2026 08 22 05  23 49 57.271   -07 00 14.64  2.3516 3.2870 153.4 20.9 91.6  15
2026 08 22 06  23 49 54.848   -07 00 24.68  2.3508 3.2865 153.4 20.9 93.5  15
2026 08 22 07  23 49 52.422   -07 00 34.72  2.3500 3.2860 153.5 20.9 95.5  16
2026 08 22 08  23 49 49.993   -07 00 44.78  2.3491 3.2855 153.5 20.9 97.4  16
2026 08 22 09  23 49 47.561   -07 00 54.85  2.3483 3.2849 153.5 20.9   99  17
2026 08 22 10  23 49 45.126   -07 01 04.93  2.3475 3.2844 153.6 20.9  101  17
2026 08 22 11  23 49 42.688   -07 01 15.02  2.3467 3.2839 153.6 20.9  103  18
2026 08 22 12  23 49 40.247   -07 01 25.12  2.3459 3.2834 153.7 20.9  105  19
2026 08 22 13  23 49 37.804   -07 01 35.23  2.3451 3.2828 153.7 20.9  107  19
2026 08 22 14  23 49 35.357   -07 01 45.34  2.3443 3.2823 153.8 20.9  109  20
2026 08 22 15  23 49 32.908   -07 01 55.47  2.3435 3.2818 153.8 20.9  111  20